User: anonymous   Login
Location: Unspecified
(0.0000°N, 0.0000°E)
Time: 19:06:30
(UTC+00:00)
Language:

STARLINK-35946 - Orbit

View from above orbital plane
View from above orbital plane
View from above satellite
View from above satellite

Ground track
Ground track

The orbit is defined by the following mean orbital elements,

1 66522U          26145.47455818 +.00000000 +00000-0 +48749-3 0 00009
2 66522  43.0031 204.5600 0001236 275.0039  85.0672 15.27591185    01
Epoch (UTC): 25 May 2026 11:23:21
Eccentricity: 0.0001236
inclination: 43.0031°
perigee height: 482 km
apogee height: 484 km
right ascension of ascending node: 204.5600°
argument of perigee: 275.0039°
revolutions per day: 15.27591185
mean anomaly at epoch: 85.0672°

The dashed part of the orbit path shows where the satellite is in the earth's shadow,  

DLR